[[{"header":{"parameterUnit":"m.s-1","parameterCategory":1,"la1":30.2991,"la2":30.254,"lo1":-89.0895,"lo2":-89.0444,"dy":0.0017,"dx":0.0017,"nx":28,"ny":28,"refTime":"2024-06-17T09:00:00:Z","depth":0,"parameterNumber":2,"parameterNumberName":"U-component_of_WINDS"},"data":[0,0,0,0,0,0,0,0,0,0,0,0,0,0,0,0,0,0,0,0,0,0,0,0,0,0,0,0,0,0,0,0,0,0,0,0,0,0,0,0,0,0,0,0,0,0,0,0,0,0,0,0,0,0,0,0,0,0,-9.4867,-9.4866,0,-9.4841,-9.4841,-9.484,-9.454,-9.4532,-9.4524,-9.4517,-9.4494,-9.45,-9.4507,0,0,0,0,0,0,0,0,0,0,0,0,0,-9.4658,-9.4664,-9.4867,-9.4866,-9.4866,-9.4841,-9.4841,-9.484,-9.4541,-9.4532,-9.4522,-9.4514,-9.4492,-9.4499,-9.4507,0,0,0,0,0,0,0,0,0,0,0,0,0,-9.4703,-9.4665,-9.4867,-9.4713,-9.4699,-9.4841,-9.4841,-9.484,-9.4543,-9.4531,-9.452,-9.4509,-9.4489,-9.4499,-9.4508,-9.4796,0,0,-9.4538,-9.4542,0,0,0,0,0,0,0,0,-9.4701,-9.4711,-9.4736,-9.4724,-9.4709,-9.4682,-9.4758,-9.4825,-9.4546,-9.4603,-9.4517,-9.4504,-9.4566,-9.4569,-9.4589,-9.4795,-9.4794,-9.4539,-9.4545,-9.4549,-9.4551,0,0,0,0,0,0,0,-9.4698,-9.471,-9.4856,-9.4737,-9.472,-9.4647,-9.464,-9.477,-9.4648,-9.4597,-9.4575,-9.4576,-9.4556,-9.458,-9.4586,-9.4793,-9.4538,-9.4547,-9.4553,-9.4557,-9.5231,-9.5242,0,0,0,0,0,0,-9.4716,-9.4709,-9.4857,-9.4855,-9.4676,-9.466,-9.4653,-9.4702,-9.4646,-9.4627,-9.4585,-9.4562,-9.4569,-9.4575,-9.4584,-9.4913,-9.4549,-9.4558,-9.4563,-9.5219,-9.5234,-9.5247,0,0,0,0,0,0,-9.4712,-9.4732,-9.4858,-9.4777,-9.4787,-9.4675,-9.4733,-9.4708,-9.4731,-9.4637,-9.4615,-9.4632,-9.456,-9.457,-9.4744,-9.4908,-9.4562,-9.4571,-9.5205,-9.5223,-9.524,-9.5577,0,0,0,0,0,0,-9.4708,-9.4732,-9.484,-9.4781,-9.4793,-9.5019,-9.4743,-9.4715,-9.4748,-9.4717,-9.4675,-9.4657,-9.4552,-9.4732,-9.4754,-9.4916,-9.4578,-9.5189,-9.5213,-9.5234,-9.5551,-9.5605,-9.5651,0,0,0,0,0,-9.4701,-9.4937,-9.4847,-9.4866,-9.4924,-9.5029,-9.5036,-9.4909,-9.4763,-9.4869,-9.481,-9.4659,-9.4889,-9.4752,-9.4775,-9.4942,-9.5178,-9.5206,-9.5233,-9.5529,-9.5594,-9.565,0,0,0,0,0,0,-9.5018,-9.4926,-9.4825,-9.5049,-9.5049,-9.4978,-9.5109,-9.4983,-9.5026,-9.4995,-9.4837,-9.483,-9.5028,-9.5003,-9.4853,-9.5216,-9.5007,-9.504,-9.5224,-9.5286,-9.5335,-9.5335,-9.4586,0,0,0,0,0,-9.5115,-9.5207,-9.5121,-9.5327,-9.5332,-9.5222,-9.5263,-9.5166,-9.516,-9.5158,-9.5111,-9.5112,-9.5183,-9.5234,-9.5295,-9.5548,-9.5533,-9.5674,-9.5724,-9.5765,-9.5795,-9.5923,-9.5984,-9.5336,-9.5336,-9.5335,0,0,-9.5313,-9.5275,-9.5342,-9.539,-9.5378,-9.5477,-9.5224,-9.534,-9.5411,-9.5176,-9.5335,-9.5303,-9.5293,-9.5507,-9.5599,-9.5492,-9.5971,-9.58,-9.5834,-9.584,-9.5958,-9.6019,-9.6074,-9.5355,-9.5351,-9.5348,0,0,-9.5725,-9.5707,-9.5873,-9.5868,-9.5853,-9.5778,-9.582,-9.5768,-9.5736,-9.5894,-9.5719,-9.5804,-9.5932,-9.5931,-9.5948,-9.6362,-9.6223,-9.6387,-9.6646,-9.6773,-9.6824,-9.6869,-9.7013,-9.7067,-9.6417,-9.6418,-9.6418,0,-9.5973,-9.6114,-9.5976,-9.6102,-9.6128,-9.592,-9.6088,-9.609,-9.6098,-9.612,-9.6001,-9.6155,-9.6135,-9.6344,-9.6445,-9.6467,-9.6507,-9.6388,-9.6828,-9.6871,-9.6911,-9.7046,-9.7101,-9.6437,-9.6435,-9.6433,-9.6431,0,-9.6419,-9.652,-9.6657,-9.6668,-9.6709,-9.6857,-9.6741,-9.6801,-9.6701,-9.664,-9.6803,-9.6772,-9.6821,-9.6865,-9.677,-9.7062,-9.6995,-9.6856,-9.6641,-9.6994,-9.7119,-9.717,-9.6465,-9.6458,-9.6452,-9.6448,0,0,-9.7025,-9.6958,-9.7011,-9.7012,-9.6982,-9.7058,-9.7197,-9.7244,-9.7297,-9.7311,-9.7421,-9.7535,-9.7405,-9.7424,-9.7327,-9.7441,-9.7766,-9.7285,-9.7282,-9.7372,-9.8083,-9.8185,-9.8247,-9.7677,-9.7686,-9.7694,-9.8082,0,-9.7418,-9.7648,-9.7528,-9.7774,-9.7864,-9.767,-9.779,-9.7786,-9.7733,-9.7802,-9.7744,-9.7826,-9.7649,-9.7659,-9.7763,-9.7705,-9.7906,-9.7676,-9.7776,-9.7782,-9.778,-9.8313,-9.8421,-9.8788,-9.813,-9.8138,-9.8144,0,-9.7905,-9.7938,-9.8193,-9.8144,-9.8178,-9.8288,-9.8321,-9.8391,-9.8383,-9.8336,-9.836,-9.8236,-9.8368,-9.8161,-9.8341,-9.8187,-9.8222,-9.8201,-9.8212,-9.8212,-9.7981,-9.8323,-9.8903,-9.8957,-9.8221,-9.8214,-9.8209,0,-9.8316,-9.8425,-9.859,-9.8598,-9.8548,-9.8629,-9.8612,-9.8592,-9.8628,-9.8659,-9.8681,-9.8729,-9.8754,-9.8793,-9.8686,-9.8546,-9.888,-9.8664,-9.8843,-9.8846,-9.8918,-9.8914,-9.9507,-9.895,-9.895,-9.8948,-9.8947,0,-9.8764,-9.8927,-9.8773,-9.8875,-9.9051,-9.8914,-9.9092,-9.9054,-9.9039,-9.9129,-9.8967,-9.9056,-9.8911,-9.8986,-9.8904,-9.9064,-9.9078,-9.9043,-9.9018,-9.9055,-9.9059,-9.9071,-9.9041,-9.8963,-9.896,-9.8957,-9.8954,0,-9.925,-9.9155,-9.9321,-9.926,-9.9249,-9.9381,-9.9329,-9.942,-9.9358,-9.9475,-9.9494,-9.9396,-9.9476,-9.9374,-9.9446,-9.939,-9.9607,-9.9547,-9.9609,-9.959,-9.9773,-9.9755,-10.039,-10.0465,-9.9867,-9.9873,-9.9878,0,-9.9539,-9.9659,-9.9611,-9.966,-9.9652,-9.9733,-9.9769,-9.964,-9.9684,-9.9684,-9.9776,-9.9842,-9.9886,-10.0024,-9.9959,-10.0012,-9.9949,-10.0168,-9.9956,-9.9988,-9.9947,-9.9939,-9.9949,-10.021,-10.0217,-10.0223,-10.0228,0,-10.0061,-10.0008,-10.0065,-10.0108,-10.0155,-10.0182,-10.0197,-10.0247,-10.0112,-10.017,-10.0249,-10.0285,-10.0357,-10.0423,-10.046,-10.0442,-10.0314,-10.0296,-10.0339,-10.0375,-10.0404,-10.0386,-9.9722,-10.0281,-10.0275,-10.0272,-10.0269,-10.0267,-10.0454,-10.055,-10.0531,-10.06,-10.0598,-10.0617,-10.0698,-10.0646,-10.0709,-10.0756,-10.0678,-10.0777,-10.0766,-10.0801,-10.0799,-10.0875,-10.078,-10.0844,-10.0859,-10.0876,-10.0902,-10.0398,-10.0882,-10.088,-10.0879,-10.0877,-10.0876,0,-10.0962,-10.0941,-10.1007,-10.1032,-10.1087,-10.0962,-10.0973,-10.1027,-10.1115,-10.1116,-10.1164,-10.1255,-10.1319,-10.1261,-10.1314,-10.1386,-10.1328,-10.1404,-10.1395,-10.1392,-10.0986,-10.094,-10.145,-10.145,-10.145,-10.145,-10.1449,-10.1449,-10.1233,-10.1389,-10.1335,-10.1488,-10.1465,-10.156,-10.1576,-10.1592,-10.1591,-10.1699,-10.1752,-10.1714,-10.169,-10.1741,-10.1795,-10.1776,-10.1801,-10.1897,-10.1858,-10.1478,-10.1421,-10.1367,-10.1324,-10.1905,-10.1906,-10.2256,-10.226,-10.2262]},{"header":{"parameterUnit":"m.s-1","parameterCategory":1,"la1":30.2991,"la2":30.254,"lo1":-89.0895,"lo2":-89.0444,"dy":0.0017,"dx":0.0017,"nx":28,"ny":28,"refTime":"2024-06-17T09:00:00:Z","depth":0,"parameterNumber":3,"parameterNumberName":"V-component_of_WINDS"},"data":[0,0,0,0,0,0,0,0,0,0,0,0,0,0,0,0,0,0,0,0,0,0,0,0,0,0,0,0,0,0,0,0,0,0,0,0,0,0,0,0,0,0,0,0,0,0,0,0,0,0,0,0,0,0,0,0,0,0,1.0426,1.0425,0,1.0357,1.0356,1.0355,1.0223,1.022,1.0217,1.0215,1.0148,1.0148,1.0149,0,0,0,0,0,0,0,0,0,0,0,0,0,1.0447,1.0448,1.0426,1.0425,1.0424,1.0357,1.0356,1.0355,1.0223,1.022,1.0217,1.0214,1.0148,1.0148,1.0149,0,0,0,0,0,0,0,0,0,0,0,0,0,1.0414,1.0448,1.0426,1.035,1.0342,1.0357,1.0356,1.0355,1.0224,1.022,1.0216,1.0212,1.0147,1.0148,1.0149,1.0233,0,0,1.0152,1.0153,0,0,0,0,0,0,0,0,1.0417,1.0414,1.0362,1.0355,1.0347,1.0294,1.0339,1.0314,1.0225,1.0269,1.0215,1.021,1.02,1.0196,1.0192,1.023,1.0227,1.0152,1.0153,1.0153,1.0154,0,0,0,0,0,0,0,1.0419,1.0416,1.0398,1.0361,1.0352,1.0321,1.0312,1.0334,1.0257,1.0265,1.0255,1.0248,1.0195,1.0192,1.019,1.0226,1.0152,1.0153,1.0154,1.0154,1.0332,1.0336,0,0,0,0,0,0,1.0432,1.0419,1.0401,1.0396,1.0373,1.0324,1.0314,1.0315,1.0257,1.0244,1.0252,1.0243,1.0192,1.0189,1.0187,1.0282,1.0153,1.0154,1.0155,1.0328,1.0333,1.0338,0,0,0,0,0,0,1.0433,1.0431,1.0403,1.0405,1.0399,1.0327,1.033,1.0316,1.0312,1.0247,1.0233,1.0262,1.0189,1.0185,1.0223,1.0278,1.0155,1.0155,1.0323,1.033,1.0335,1.0473,0,0,0,0,0,0,1.0434,1.0432,1.0462,1.0406,1.0399,1.044,1.0334,1.0317,1.0314,1.0301,1.0253,1.0241,1.0185,1.0222,1.0224,1.0277,1.0156,1.0318,1.0326,1.0333,1.0464,1.0484,1.0501,0,0,0,0,0,1.0435,1.0504,1.0464,1.0463,1.0435,1.0443,1.0439,1.0373,1.0319,1.0349,1.0308,1.0242,1.0272,1.0227,1.0228,1.0282,1.0314,1.0324,1.0333,1.0455,1.048,1.05,0,0,0,0,0,0,1.0568,1.0495,1.045,1.0503,1.048,1.0421,1.0456,1.04,1.0393,1.0381,1.03,1.0291,1.034,1.0315,1.0266,1.0362,1.0283,1.0293,1.0376,1.0398,1.0417,1.0422,1.0157,0,0,0,0,0,1.0604,1.0615,1.0551,1.0604,1.0595,1.0529,1.0529,1.048,1.0454,1.0444,1.0405,1.0383,1.0387,1.0391,1.0392,1.046,1.0449,1.0498,1.0517,1.0532,1.0542,1.0578,1.0599,1.0368,1.0368,1.0368,0,0,1.0678,1.0639,1.0651,1.063,1.0606,1.0622,1.0521,1.0541,1.0552,1.0447,1.048,1.0451,1.0421,1.0475,1.0497,1.0456,1.0603,1.0544,1.0557,1.0558,1.059,1.0612,1.0631,1.0375,1.0374,1.0373,0,0,1.0819,1.0791,1.0832,1.0811,1.0777,1.0732,1.0743,1.0692,1.0669,1.0701,1.0623,1.0636,1.0645,1.0627,1.0619,1.0758,1.0699,1.0761,1.0857,1.0894,1.0912,1.0928,1.0978,1.0997,1.0771,1.0771,1.0771,0,1.0915,1.0933,1.0861,1.0886,1.088,1.0786,1.0829,1.0812,1.0781,1.0779,1.0734,1.0744,1.0717,1.0767,1.0801,1.0797,1.0808,1.0765,1.0915,1.093,1.0944,1.0991,1.101,1.0779,1.0778,1.0777,1.0776,0,1.1053,1.1068,1.1105,1.1077,1.1075,1.1109,1.1044,1.1052,1.1004,1.0966,1.1001,1.0966,1.0958,1.0966,1.092,1.101,1.0986,1.0929,1.0848,1.0975,1.1018,1.1035,1.079,1.0787,1.0785,1.0783,0,0,1.1274,1.1207,1.1222,1.1209,1.1166,1.1176,1.1208,1.1199,1.1208,1.1191,1.1216,1.1227,1.1174,1.1166,1.1117,1.1149,1.1263,1.1088,1.1086,1.1123,1.1362,1.1405,1.1427,1.1224,1.1227,1.123,1.1365,0,1.1406,1.1453,1.1391,1.1453,1.1466,1.1379,1.1407,1.1385,1.135,1.1358,1.132,1.133,1.1259,1.1254,1.1282,1.1243,1.131,1.1233,1.1248,1.1249,1.1257,1.1449,1.1494,1.1623,1.1381,1.1384,1.1386,0,1.1565,1.1555,1.1619,1.1573,1.1577,1.1602,1.1591,1.16,1.1574,1.1547,1.1539,1.1481,1.1511,1.1434,1.1474,1.1423,1.1426,1.1409,1.1412,1.141,1.1325,1.1453,1.1662,1.1682,1.1411,1.1409,1.1408,0,1.172,1.1723,1.1762,1.1753,1.1702,1.1722,1.1702,1.1672,1.1672,1.1663,1.1663,1.1659,1.1656,1.1655,1.1598,1.1547,1.1647,1.1564,1.1626,1.1628,1.165,1.1649,1.1863,1.1653,1.1653,1.1652,1.1652,0,1.1873,1.1916,1.1831,1.1855,1.1901,1.183,1.1878,1.1849,1.1824,1.1842,1.1768,1.1787,1.1711,1.1722,1.1679,1.172,1.1719,1.1699,1.1687,1.1706,1.1709,1.1706,1.1696,1.1657,1.1656,1.1655,1.1654,0,1.2054,1.1999,1.2035,1.1984,1.1973,1.2009,1.1966,1.1987,1.1949,1.1973,1.1975,1.1916,1.1926,1.1869,1.1869,1.184,1.1903,1.1876,1.1912,1.1903,1.1969,1.1963,1.2188,1.2214,1.1988,1.199,1.1992,0,1.2155,1.2186,1.2139,1.2145,1.2129,1.214,1.214,1.2073,1.2076,1.2051,1.2076,1.208,1.2079,1.21,1.2058,1.2058,1.203,1.2109,1.203,1.2048,1.2032,1.2031,1.2034,1.2125,1.2128,1.213,1.2132,0,1.234,1.2312,1.2314,1.2309,1.2311,1.2303,1.229,1.23,1.2228,1.2236,1.2245,1.2245,1.2246,1.2251,1.2244,1.2224,1.2168,1.2158,1.2172,1.2191,1.2211,1.2202,1.1957,1.2153,1.2151,1.2149,1.2148,1.2147,1.2484,1.2508,1.2479,1.2485,1.2469,1.2459,1.2477,1.2442,1.2448,1.2443,1.2404,1.2421,1.2397,1.2381,1.2368,1.2381,1.2344,1.2365,1.237,1.2376,1.2388,1.221,1.238,1.2379,1.2379,1.2378,1.2377,0,1.2666,1.2644,1.265,1.2635,1.264,1.2586,1.257,1.2579,1.2594,1.2577,1.2578,1.259,1.2596,1.2556,1.2556,1.2576,1.255,1.2578,1.2576,1.2573,1.2421,1.2408,1.2599,1.2599,1.2599,1.2599,1.2599,1.2599,1.2761,1.2799,1.2768,1.2799,1.2776,1.2792,1.2788,1.278,1.2765,1.2782,1.2786,1.276,1.2734,1.2733,1.2737,1.2725,1.2729,1.2766,1.2746,1.2605,1.2583,1.2563,1.255,1.2768,1.2768,1.2896,1.2897,1.2898]}]]